{"data":{"norad_id":57781,"epoch":"2026-09-20T02:51:22.255776Z","epoch_age_seconds":164042,"freshness":"FRESH","line1":"1 57781U 23134L   26263.11900759 -.00000107  00000+0  56453-5 0  9998","line2":"2 57781  43.0012 176.3201 0000901 265.1700  94.9049 15.27572917169244","mean_motion":15.27572917,"eccentricity":9.01e-5,"inclination_deg":43.0012,"raan_deg":176.3201,"arg_perigee_deg":265.17,"mean_anomaly_deg":94.9049,"bstar":5.6453e-6,"rev_number":16924,"period_min":94.26718580662,"perigee_km":482.4521103935,"apogee_km":483.6884999499,"semimajor_km":6861.2073051717,"source":"CELESTRAK","updated_at":"2026-09-21T09:00:33.704160Z"}}